User: anonymous   Login
Location: Unspecified
(0.0000°N, 0.0000°E)
Time: 06:21:00
(UTC+00:00)
Language:

FALCONSAT 3 - Orbit

View from above orbital plane
View from above orbital plane
View from above satellite
View from above satellite

Ground track
Ground track

The orbit data is extracted from the following two-line orbital elements,

1 30776U 07006E   18175.55713747 +.00002006 +00000-0 +60010-4 0  9996
2 30776 035.4345 219.8292 0002128 099.6178 260.4789 15.34570965625458
Epoch (UTC): 24 June 2018 13:22:16
Eccentricity: 0.0002128
inclination: 35.4345°
perigee height: 461 km
apogee height: 463 km
right ascension of ascending node: 219.8292°
argument of perigee: 99.6178°
revolutions per day: 15.34570965
mean anomaly at epoch: 260.4789°
orbit number at epoch: 62545

The dashed part of the orbit path shows where the satellite is in the earth's shadow,  

DLR